| time (UTC) | temp F | wind direction | speed knots | gust knots | rain 1hr in | rain 24hr in | rain mn in | humidity % | barometer mb |
| 20260502190020 | 86 | 248 | 7.8 | 15.6 | 0.00 | 0.00 | 0.00 | 22 | 1013.1 |
| 20260502184532 | 86 | 274 | 10.4 | 14.8 | 0.00 | 0.00 | 0.00 | 23 | 1013.4 |
| 20260502183024 | 85 | 245 | 7.8 | 15.6 | 0.00 | 0.00 | 0.00 | 24 | 1013.6 |
| 20260502181523 | 84 | 240 | 9.6 | 17.4 | 0.00 | 0.00 | 0.00 | 26 | 1013.9 |
| 20260502163032 | 81 | 267 | 9.6 | 16.5 | 0.00 | 0.00 | 0.00 | 25 | 1014.4 |
| 20260502161528 | 81 | 256 | 8.7 | 13.9 | 0.00 | 0.00 | 0.00 | 24 | 1014.3 |
| 20260502151523 | 79 | 243 | 8.7 | 14.8 | 0.00 | 0.00 | 0.00 | 24 | 1013.9 |
| 20260502123010 | 74 | 169 | 7.0 | 13.0 | 0.00 | 0.00 | 0.00 | 20 | 1011.7 |
| 20260502121514 | 75 | 213 | 7.8 | 13.9 | 0.00 | 0.00 | 0.00 | 20 | 1011.5 |
| 20260502114525 | 75 | 176 | 7.8 | 13.9 | 0.00 | 0.00 | 0.00 | 20 | 1011.5 |
| 20260502113027 | 75 | 172 | 7.0 | 12.2 | 0.00 | 0.00 | 0.00 | 20 | 1011.4 |
| 20260502111510 | 76 | 195 | 8.7 | 13.0 | 0.00 | 0.00 | 0.00 | 20 | 1011.3 |
| 20260502110104 | 76 | 149 | 6.1 | 12.2 | 0.00 | 0.00 | 0.00 | 20 | 1011.3 |
| 20260502101508 | 77 | 172 | 8.7 | 13.9 | 0.00 | 0.00 | 0.00 | 19 | 1011.1 |
| 20260502091527 | 79 | 219 | 7.0 | 13.9 | 0.00 | 0.00 | 0.00 | 18 | 1010.8 |
| 20260502071520 | 82 | 178 | 3.5 | 4.3 | 0.00 | 0.00 | 0.00 | 13 | 1010.1 |
| 20260502070032 | 79 | 195 | 3.5 | 5.2 | 0.00 | 0.00 | 0.00 | 14 | 1010.0 |
| 20260502064507 | 76 | 53 | 1.7 | 5.2 | 0.00 | 0.00 | 0.00 | 16 | 1010.0 |
| 20260502063012 | 78 | 352 | 2.6 | 6.1 | 0.00 | 0.00 | 0.00 | 16 | 1010.0 |
| 20260502061516 | 79 | 57 | 4.3 | 6.1 | 0.00 | 0.00 | 0.00 | 14 | 1009.9 |
| 20260502060021 | 81 | 95 | 5.2 | 7.0 | 0.00 | 0.00 | 0.00 | 13 | 1010.1 |
| 20260502054527 | 82 | 94 | 7.8 | 11.3 | 0.00 | 0.00 | 0.00 | 13 | 1010.1 |
| 20260502053010 | 81 | 97 | 7.8 | 8.7 | 0.00 | 0.00 | 0.00 | 14 | 1010.1 |
| 20260502051524 | 80 | 79 | 7.8 | 8.7 | 0.00 | 0.00 | 0.00 | 17 | 1010.1 |
| 20260502050020 | 81 | 77 | 5.2 | 8.7 | 0.00 | 0.00 | 0.00 | 17 | 1010.0 |
| 20260502044525 | 81 | 68 | 6.1 | 7.8 | 0.00 | 0.00 | 0.00 | 17 | 1009.7 |
| 20260502043027 | 82 | 72 | 4.3 | 6.1 | 0.00 | 0.00 | 0.00 | 17 | 1009.7 |
| 20260502041513 | 82 | 85 | 2.6 | 3.5 | 0.00 | 0.00 | 0.00 | 17 | 1009.5 |
| 20260502040029 | 82 | 61 | 1.7 | 3.5 | 0.00 | 0.00 | 0.00 | 17 | 1009.2 |
| 20260502034520 | 83 | 75 | 1.7 | 1.7 | 0.00 | 0.00 | 0.00 | 17 | 1009.0 |
| 20260502033023 | 83 | 81 | 0.9 | 1.7 | 0.00 | 0.00 | 0.00 | 16 | 1008.8 |
| 20260502031528 | 84 | 40 | 4.3 | 6.1 | 0.00 | 0.00 | 0.00 | 16 | 1008.6 |
| 20260502030012 | 85 | 37 | 4.3 | 6.1 | 0.00 | 0.00 | 0.00 | 16 | 1008.4 |
| 20260502024535 | 85 | 46 | 4.3 | 7.8 | 0.00 | 0.00 | 0.00 | 16 | 1008.2 |
| 20260502023024 | 86 | 51 | 5.2 | 8.7 | 0.00 | 0.00 | 0.00 | 15 | 1008.2 |
| 20260502021523 | 86 | 35 | 5.2 | 8.7 | 0.00 | 0.00 | 0.00 | 15 | 1008.0 |
| 20260502020029 | 87 | 42 | 5.2 | 10.4 | 0.00 | 0.00 | 0.00 | 15 | 1007.8 |
| 20260502014525 | 87 | 56 | 7.8 | 12.2 | 0.00 | 0.00 | 0.00 | 15 | 1007.7 |
| 20260502013025 | 88 | 51 | 8.7 | 13.9 | 0.00 | 0.00 | 0.00 | 15 | 1007.8 |
| 20260502011522 | 88 | 55 | 8.7 | 12.2 | 0.00 | 0.00 | 0.00 | 14 | 1007.8 |
| 20260502010028 | 89 | 41 | 5.2 | 11.3 | 0.00 | 0.00 | 0.00 | 14 | 1007.8 |
| 20260502004528 | 89 | 50 | 7.8 | 12.2 | 0.00 | 0.00 | 0.00 | 13 | 1007.7 |
| 20260502003015 | 89 | 89 | 7.0 | 13.0 | 0.00 | 0.00 | 0.00 | 13 | 1007.8 |
| 20260502001521 | 89 | 99 | 8.7 | 12.2 | 0.00 | 0.00 | 0.00 | 13 | 1007.8 |
| 20260502000023 | 89 | 86 | 9.6 | 15.6 | 0.00 | 0.00 | 0.00 | 14 | 1007.8 |
| 20260501234525 | 89 | 11 | 10.4 | 13.9 | 0.00 | 0.00 | 0.00 | 16 | 1007.9 |
| 20260501233028 | 89 | 106 | 5.2 | 13.0 | 0.00 | 0.00 | 0.00 | 15 | 1007.9 |
| 20260501231532 | 87 | 89 | 4.3 | 13.9 | 0.00 | 0.00 | 0.00 | 15 | 1008.1 |
| 20260501230021 | 88 | 32 | 8.7 | 15.6 | 0.00 | 0.00 | 0.00 | 16 | 1008.2 |
| 20260501224527 | 87 | 94 | 4.3 | 12.2 | 0.00 | 0.00 | 0.00 | 17 | 1008.6 |
| 20260501223008 | 86 | 70 | 7.0 | 13.9 | 0.00 | 0.00 | 0.00 | 20 | 1008.8 |
| 20260501221515 | 87 | 48 | 5.2 | 11.3 | 0.00 | 0.00 | 0.00 | 20 | 1008.9 |
| 20260501220023 | 86 | 61 | 7.8 | 13.0 | 0.00 | 0.00 | 0.00 | 20 | 1009.2 |
| 20260501214525 | 86 | 37 | 7.0 | 12.2 | 0.00 | 0.00 | 0.00 | 20 | 1009.5 |
| 20260501213007 | 85 | 40 | 5.2 | 11.3 | 0.00 | 0.00 | 0.00 | 19 | 1009.9 |
| 20260501211510 | 84 | 63 | 7.8 | 12.2 | 0.00 | 0.00 | 0.00 | 20 | 1010.2 |
| 20260501210016 | 83 | 70 | 7.8 | 13.0 | 0.00 | 0.00 | 0.00 | 21 | 1010.5 |
| 20260501204520 | 83 | 53 | 5.2 | 11.3 | 0.00 | 0.00 | 0.00 | 24 | 1010.6 |
| 20260501203038 | 82 | 20 | 4.3 | 12.2 | 0.00 | 0.00 | 0.00 | 23 | 1010.8 |
| 20260501201507 | 82 | 72 | 7.8 | 13.9 | 0.00 | 0.00 | 0.00 | 24 | 1010.9 |
| 20260501200012 | 82 | 67 | 7.0 | 12.2 | 0.00 | 0.00 | 0.00 | 25 | 1011.0 |
| 20260501194519 | 83 | 98 | 2.6 | 10.4 | 0.00 | 0.00 | 0.00 | 25 | 1011.1 |
| 20260501193020 | 83 | 94 | 0.9 | 7.0 | 0.00 | 0.00 | 0.00 | 25 | 1011.4 |
| 20260501191525 | 80 | 64 | 4.3 | 10.4 | 0.00 | 0.00 | 0.00 | 27 | 1011.7 |